Flag for U.S.A. Weather past 2 weeks in Plano, Texas, U.S.A.

Now
80 °F

Passing clouds.


Feels Like: 84 °F
Forecast: 78 / 90 °F
Wind: 12 mph from Southwest

Location: McKinney Municipal Airport

Current Time: Jul 3, 2015 at 7:28:31 AM

Latest Report: Jul 3, 2015 at 6:53 AM


Visibility: 10 mi

Pressure: 29.93 "Hg

Humidity: 76%

Dew point: 72 °F

Location of PlanoLocation

Historic Weather in Plano — Graph

°F

Plano temperature yesterday

Maximum temperature yesterday: 91 °F (at 3:53 PM)
Minimum temperature yesterday: 75 °F (at 2:53 AM)
Average temperature yesterday: 83 °F

Past Weeks' High & Low Weather Summary

 TemperatureHumidityPressure
High95 °F (Jun 26, 4:53 PM)97% (Jun 21, 9:56 AM)30.16 "Hg (Jun 21, 9:56 AM)
Low67 °F (Jun 28, 5:53 AM)36% (Jun 28, 5:53 PM)29.84 "Hg (Jun 18, 5:53 AM)
Average82 °F69%29.99 "Hg
* Reported Jun 18 5:53 AM — Jul 3 5:53 AM, Plano, Weather by CustomWeather, © 2015

Note: Actual official high and low records may vary slightly from our data, if they occured in-between our weather recording intervals... More about our weather records

Advertising

Plano weather history for previous 24 hours

 ConditionsComfort  
Time TempWeatherWind HumidityBarometerVisibility
5:53 AM
Fri, Jul 3
80 °FPassing clouds.15 mph76%29.91 "Hg10 mi
4:53 AM81 °FPassing clouds.13 mph74%29.90 "Hg10 mi
3:53 AM81 °FClear.10 mph74%29.91 "Hg10 mi
2:53 AM82 °FWarm.9 mph70%29.90 "Hg10 mi
1:53 AM81 °FClear.10 mph72%29.92 "Hg10 mi
12:53 AM83 °FClear.14 mph68%29.90 "Hg10 mi
11:53 PM
Thu, Jul 2
85 °FClear.15 mph61%29.91 "Hg10 mi
10:53 PM85 °FClear.13 mph59%29.90 "Hg10 mi
9:53 PM83 °FClear.7 mph63%29.89 "Hg10 mi
8:53 PM86 °FSunny.12 mph53%29.87 "Hg10 mi
7:53 PM88 °FSunny.16 mph50%29.86 "Hg10 mi
6:53 PM88 °FPassing clouds.15 mph52%29.87 "Hg10 mi
5:53 PM90 °FScattered clouds.16 mph48%29.89 "Hg10 mi
4:53 PM91 °FScattered clouds.18 mph45%29.90 "Hg10 mi
3:53 PM91 °FSunny.18 mph44%29.90 "Hg10 mi
2:53 PM90 °FSunny.18 mph47%29.92 "Hg10 mi
1:53 PM90 °FSunny.13 mph47%29.94 "Hg10 mi
12:53 PM88 °FSunny.20 mph50%29.96 "Hg10 mi
11:53 AM87 °FSunny.18 mph50%29.95 "Hg10 mi
10:53 AM85 °FSunny.18 mph51%29.99 "Hg10 mi
9:53 AM83 °FSunny.21 mph53%29.98 "Hg10 mi
8:53 AM80 °FSunny.17 mph60%29.98 "Hg10 mi
7:53 AM78 °FSunny.13 mph69%29.96 "Hg10 mi
Weather by CustomWeather, © 2015

See weather overviewHow to use our weather pages